This is the latest recevied weather packets stored in our database for station/object Waldburg. If no packets are shown the sender has not sent any weather packets the latest 10 day(s).
| Time | Temp. | Humidity | Pressure | Rain* | Wind** | Luminosity | Snow |
|---|---|---|---|---|---|---|---|
| 1788181331 | 22.22° C | 60% | 1016 hPa | 4.57 mm | - | - | - |
| 1788179535 | 21.11° C | 62% | 1016.1 hPa | 4.57 mm | - | - | - |
| 1788177731 | 21.67° C | 62% | 1015.9 hPa | 4.57 mm | - | - | - |
| 1788175931 | 20.56° C | 64% | 1016.2 hPa | 4.57 mm | - | - | - |
| 1788174130 | 21.11° C | 67% | 1016.1 hPa | 4.57 mm | - | - | - |
| 1788172331 | 20.56° C | 70% | 1016.4 hPa | 4.57 mm | - | - | - |
| 1788170531 | 19.44° C | 74% | 1016.3 hPa | 4.57 mm | - | - | - |
| 1788168730 | 18.89° C | 74% | 1016.2 hPa | 4.57 mm | - | - | - |
| 1788166930 | 18.33° C | 77% | 1016.3 hPa | 4.57 mm | - | - | - |
| 1788165130 | 18.33° C | 81% | 1016 hPa | 4.57 mm | - | - | - |
| 1788163331 | 17.78° C | 87% | 1015.9 hPa | 4.57 mm | - | - | - |
| 1788161530 | 17.22° C | 88% | 1015.5 hPa | 4.57 mm | - | - | - |
| 1788159730 | 17.22° C | 90% | 1015.3 hPa | 4.57 mm | - | - | - |
| 1788157930 | 16.67° C | 92% | 1015 hPa | 4.57 mm | - | - | - |
| 1788156130 | 16.11° C | 94% | 1014.8 hPa | 4.57 mm | - | - | - |
| 1788154330 | 15.56° C | 94% | 1014.7 hPa | 4.57 mm | - | - | - |
| 1788152530 | 15.56° C | 94% | 1014.6 hPa | 4.57 mm | - | - | - |
| 1788150730 | 15.56° C | 95% | 1014.5 hPa | 4.57 mm | - | - | - |
| 1788148929 | 15° C | 95% | 1014.7 hPa | 4.57 mm | - | - | - |
| 1788147130 | 15.56° C | 94% | 1014.6 hPa | 4.57 mm | - | - | - |
| 1788145329 | 15.56° C | 92% | 1014.5 hPa | 4.57 mm | - | - | - |
| 1788143529 | 15.56° C | 92% | 1014.4 hPa | 4.57 mm | - | - | - |
| 1788141729 | 16.11° C | 91% | 1014.3 hPa | 4.57 mm | - | - | - |
| 1788139931 | 16.67° C | 88% | 1014.5 hPa | 3.05 mm | - | - | - |
| 1788138129 | 18.33° C | 78% | 1012.3 hPa | 0 mm | - | - | - |
* Rain since midnight (hover to see other rain measurements)
** Current wind speed in m/s (hover to see current wind gust speed)